Wind_Speed
28 23 18 19 17 18 20 20 19 20 22 24 24 23 20 17 16 17 16 15 15 15 14 13 12 11 11 11 11 10 10 10 10 11 11 12 13 13 14 15 16 16 17 17
31 27 21 21 20 19 20 20 22 21 21 24 24 21 20 18 19 19 17 17 16 16 15 15 14 14 14 13 13 12 12 12 12 12 13 13 13 14 14 15 15 15 15 16
31 28 26 25 22 21 21 22 22 23 24 26 24 24 21 20 21 20 18 18 18 17 17 16 16 16 15 15 15 15 15 15 14 14 14 14 14 14 14 15 15 16 17 17
31 29 30 27 24 23 23 23 24 28 28 28 27 26 24 23 22 21 20 20 19 19 18 18 18 18 18 18 18 17 17 17 16 16 16 16 16 16 16 16 16 17 17 18
34 31 29 27 26 26 26 26 28 30 33 32 30 29 27 25 23 22 22 22 21 21 20 20 21 21 21 21 21 20 20 19 19 18 18 18 18 18 18 18 18 18 18 19
37 33 29 28 28 28 29 31 34 34 33 33 32 30 28 26 25 24 24 24 24 23 23 23 23 23 23 23 23 22 22 21 20 20 20 20 20 20 20 20 19 19 20 21
37 34 31 31 32 32 33 35 36 36 34 33 31 31 29 28 27 26 25 25 25 25 25 25 25 25 25 25 25 25 24 24 23 22 22 22 22 22 22 22 21 21 22 23
39 37 34 37 37 36 36 35 35 34 34 33 31 30 30 30 29 28 27 27 26 26 27 27 27 27 26 26 26 26 26 25 25 24 24 23 23 23 22 22 22 22 23 24
38 42 43 40 40 41 39 36 35 34 34 32 31 32 32 32 31 31 30 29 28 28 28 28 28 28 28 27 27 27 26 26 25 25 25 24 23 23 23 23 24 25 25 25
38 41 44 44 42 40 38 38 36 35 33 33 33 33 33 33 32 32 31 31 30 30 30 30 29 29 29 28 29 28 28 27 26 26 26 25 24 25 25 25 26 26 27 26
39 42 43 44 44 42 39 38 37 36 35 34 35 34 34 34 33 33 32 31 31 30 30 30 30 29 28 28 28 27 27 27 27 26 26 26 25 25 25 26 27 27 26 25
40 42 42 40 39 40 39 38 37 36 36 35 36 35 34 34 33 32 32 31 31 30 30 29 29 28 27 27 27 26 26 26 26 26 25 25 25 25 25 26 26 26 26 26
41 42 42 41 38 36 36 37 37 36 36 36 35 35 34 33 33 32 32 31 30 30 29 28 28 28 27 27 26 25 25 25 25 25 24 24 24 25 25 26 26 26 26 27
37 37 39 39 38 37 37 37 37 36 36 35 35 34 33 33 32 32 31 30 30 29 29 28 28 27 27 26 25 24 24 25 25 24 24 24 24 24 24 25 25 26 27 28
36 36 37 37 37 37 36 36 35 35 35 35 34 33 32 32 32 31 30 30 29 28 28 27 26 26 26 25 24 24 23 24 25 24 23 23 24 24 24 24 24 25 26 26
36 36 37 36 36 36 35 35 34 34 34 33 32 32 32 31 31 30 30 29 29 28 27 26 26 25 24 24 23 23 22 22 23 23 22 22 23 23 23 23 24 25 25 26
33 33 33 33 34 34 33 33 33 32 32 31 31 31 31 30 29 29 29 28 27 26 25 25 24 23 23 22 22 21 21 21 21 21 21 21 22 22 23 23 24 24 25 25
29 30 31 30 30 30 30 30 30 29 29 29 29 29 28 27 27 26 26 26 26 25 25 24 23 22 21 21 21 21 21 20 20 20 20 21 22 23 23 23 23 23 24 24
26 27 27 27 28 28 28 28 27 27 27 27 26 25 25 25 25 24 24 24 23 23 23 22 22 22 22 22 21 19 19 19 19 19 19 20 20 21 22 21 21 22 22 22
23 24 24 25 25 26 25 25 25 25 25 25 24 24 23 23 23 22 22 22 21 20 20 20 21 21 20 19 18 18 17 17 18 18 19 19 20 20 20 20 21 21 21 22
21 22 22 22 22 23 24 23 22 22 21 21 21 22 21 21 20 20 20 20 20 20 19 19 19 19 18 18 17 17 17 16 17 17 18 19 19 20 20 20 20 21 21 22
20 21 21 20 20 21 21 20 20 20 19 18 19 19 20 20 20 19 18 18 17 17 17 17 17 16 16 16 16 17 17 17 18 18 19 20 19 19 19 20 20 20 21 21
17 18 18 18 17 17 18 18 18 18 19 19 18 17 17 17 17 16 15 15 14 13 14 14 14 13 14 15 16 17 17 18 18 19 19 18 18 18 19 19 19 19 20 20
14 13 14 15 15 15 15 16 16 15 16 16 15 14 14 13 13 12 12 12 12 13 13 13 13 14 15 15 16 16 17 17 18 18 17 18 18 18 19 19 19 19 20 21
13 13 13 13 13 13 13 13 13 13 13 14 13 13 12 12 12 12 12 12 13 13 13 13 14 14 14 15 15 16 16 16 17 17 18 18 19 20 20 20 20 21 22 22
11 11 11 11 12 12 12 11 11 12 12 11 12 11 11 11 11 11 12 12 13 13 14 14 14 14 15 15 16 17 17 17 18 19 20 20 20 21 21 21 21 22 22 23
9 9 10 10 11 11 11 11 11 10 10 10 10 10 10 10 11 11 12 12 12 13 13 13 14 14 15 16 17 18 18 19 19 20 20 21 21 21 21 22 22 22 23 23
Wind_Direction
212 212 225 241 241 230 226 221 225 236 246 254 260 265 268 276 280 283 282 279 280 282 284 288 290 292 294 298 301 305 306 303 299 292 289 290 289 281 276 273 268 261 259 260
215 211 217 227 230 227 228 226 227 235 244 251 254 259 266 272 276 279 279 277 279 280 280 282 284 287 289 291 295 298 301 302 301 296 293 292 292 285 278 274 270 263 262 261
217 216 220 224 222 224 229 227 227 234 240 250 254 259 263 270 274 275 274 275 277 278 277 277 279 283 286 289 290 292 294 297 296 295 293 290 289 286 281 277 272 268 267 263
217 217 224 227 225 225 228 229 229 233 237 243 253 257 261 268 272 273 273 274 274 274 274 275 276 278 282 286 287 288 289 291 293 292 291 288 286 284 280 278 276 272 270 268
218 220 224 225 225 225 225 227 232 236 241 246 253 257 261 265 270 272 273 273 273 273 273 274 275 277 280 282 285 287 289 290 290 290 288 286 286 284 280 278 277 275 275 272
219 219 221 225 226 226 226 228 235 239 243 249 252 255 261 266 270 272 272 271 272 272 273 275 276 277 279 280 282 284 285 287 288 287 286 285 285 283 280 279 278 276 275 276
221 221 224 224 223 223 227 231 237 242 245 249 252 256 263 266 268 269 269 270 271 272 273 274 275 276 278 280 280 281 281 283 285 286 285 285 284 284 281 279 277 277 276 276
223 221 225 227 228 225 226 230 237 244 249 250 252 256 261 265 267 268 268 269 271 271 272 272 274 275 277 278 279 279 280 281 282 283 283 283 283 283 280 279 279 279 279 279
224 222 225 228 232 234 235 237 241 247 250 251 253 255 258 262 264 266 268 269 270 270 272 273 274 275 277 277 276 278 280 280 281 282 283 282 281 281 279 278 279 281 282 282
224 225 226 228 232 235 238 242 244 248 250 252 255 256 258 260 262 264 266 268 269 269 271 273 274 275 276 275 276 277 278 279 280 280 280 279 279 280 280 280 280 281 282 281
221 225 230 233 235 237 240 243 246 249 252 253 256 257 259 260 261 263 265 266 267 268 270 271 272 274 275 275 276 276 276 277 279 278 277 278 279 280 281 281 281 280 280 279
222 225 230 235 237 238 240 244 248 250 252 253 255 257 258 259 259 261 263 265 266 267 269 270 271 272 274 275 275 276 276 275 276 278 278 279 281 280 281 281 281 280 278 280
227 231 234 238 241 242 244 247 250 251 252 254 256 257 257 258 259 261 262 264 266 267 268 268 269 272 273 274 275 275 275 275 275 277 280 281 281 281 281 282 281 281 281 280
229 231 235 238 242 245 248 250 251 252 253 254 256 256 256 257 258 259 261 263 265 266 267 268 270 271 271 273 274 275 276 275 275 277 278 280 280 280 281 282 283 283 282 282
236 236 239 242 244 245 248 250 251 251 251 253 255 255 255 256 257 258 258 260 263 264 266 267 268 268 268 270 273 275 276 274 274 275 278 280 280 279 280 281 285 286 286 285
238 240 241 243 244 245 247 249 250 251 251 252 252 253 254 255 255 256 257 259 261 263 265 266 266 265 265 268 271 273 276 276 275 277 279 281 281 281 281 282 285 286 286 287
237 238 240 242 243 244 246 247 248 249 250 249 250 251 253 253 254 255 256 258 260 260 262 263 265 265 266 267 268 271 274 276 277 278 281 282 280 281 283 284 285 287 289 289
234 236 239 241 241 242 244 245 246 247 247 247 248 250 250 251 253 255 256 257 257 258 258 258 261 263 264 266 268 271 274 276 275 276 279 280 281 282 285 287 288 289 289 290
237 237 238 240 241 242 242 243 244 244 244 245 246 246 248 250 252 254 254 255 254 254 255 256 259 261 263 266 268 271 274 276 277 279 281 283 286 288 288 288 289 291 292 293
236 235 236 237 238 239 239 240 241 242 244 243 242 245 248 250 250 250 249 248 250 252 253 255 257 259 262 264 267 271 274 275 277 280 282 285 288 289 287 288 291 293 295 296
234 234 234 235 234 234 235 236 238 239 241 240 239 242 244 246 246 246 246 245 247 251 252 254 256 257 259 263 267 270 274 276 279 282 285 286 288 288 288 290 294 296 297 299
231 232 231 231 231 231 230 230 232 233 234 233 235 237 240 241 243 244 243 243 246 247 250 253 255 256 259 264 268 272 275 279 282 284 286 286 287 288 291 295 297 299 300 301
225 225 226 226 226 226 225 226 227 229 230 231 230 231 233 236 239 240 242 243 244 245 247 250 253 258 263 268 271 275 280 282 283 285 286 287 291 293 295 296 298 299 300 302
212 210 209 211 213 215 216 217 218 218 218 217 219 223 226 227 228 234 238 241 246 249 252 256 258 261 266 270 273 278 281 283 284 285 285 290 293 295 297 298 299 300 301 302
190 189 190 195 200 205 206 206 207 209 209 211 216 221 223 226 231 235 239 245 251 253 255 258 260 262 268 272 276 281 284 284 285 286 289 292 294 295 295 296 297 298 300 300
172 177 181 188 190 190 193 196 201 203 206 209 211 217 224 228 232 238 242 246 251 254 258 264 269 272 274 276 280 285 286 287 288 289 291 292 294 294 294 296 297 298 299 300
159 167 170 172 175 182 188 193 195 196 198 202 207 214 223 232 240 246 248 253 260 265 269 272 273 275 278 282 285 285 286 287 288 290 290 291 292 292 293 295 296 297 298 299
Height
5824 5828 5832 5833 5836 5838 5840 5843 5846 5847 5845 5844 5843 5843 5844 5844 5846 5846 5846 5846 5846 5845 5845 5845 5845 5844 5844 5843 5843 5842 5841 5840 5840 5839 5839 5839 5839 5839 5839 5839 5840 5840 5841 5841
5816 5822 5825 5828 5831 5834 5837 5839 5841 5841 5840 5838 5837 5838 5839 5841 5842 5843 5843 5843 5843 5843 5842 5842 5842 5842 5842 5841 5841 5840 5839 5839 5838 5837 5837 5836 5836 5836 5836 5836 5836 5836 5837 5837
5810 5816 5819 5822 5826 5829 5832 5834 5836 5836 5836 5834 5834 5835 5836 5837 5838 5839 5840 5840 5839 5839 5839 5839 5839 5839 5839 5838 5838 5837 5837 5836 5835 5834 5834 5833 5833 5833 5832 5832 5832 5832 5833 5833
5804 5810 5812 5819 5821 5824 5826 5828 5829 5829 5829 5828 5829 5831 5832 5833 5834 5835 5836 5836 5836 5835 5836 5836 5836 5836 5835 5835 5834 5834 5834 5833 5832 5831 5830 5830 5829 5829 5829 5829 5828 5828 5828 5828
5796 5801 5806 5811 5814 5817 5820 5821 5822 5822 5822 5823 5825 5826 5827 5828 5829 5830 5831 5831 5831 5831 5831 5831 5831 5831 5831 5831 5830 5830 5830 5829 5828 5827 5827 5826 5826 5825 5825 5824 5824 5824 5824 5824
5789 5794 5799 5805 5807 5808 5813 5813 5813 5814 5816 5817 5819 5821 5821 5823 5824 5825 5825 5826 5826 5826 5826 5826 5826 5826 5826 5826 5826 5825 5825 5824 5824 5823 5822 5822 5822 5821 5820 5820 5819 5819 5819 5819
5781 5786 5791 5794 5795 5799 5804 5804 5805 5807 5810 5811 5812 5814 5815 5817 5818 5819 5819 5820 5820 5820 5820 5820 5820 5820 5820 5820 5820 5820 5820 5819 5819 5818 5817 5817 5816 5815 5815 5814 5814 5813 5814 5813
5773 5779 5784 5784 5786 5789 5791 5794 5797 5799 5802 5805 5806 5808 5809 5810 5811 5812 5813 5813 5814 5814 5814 5814 5814 5814 5814 5814 5814 5814 5813 5813 5813 5812 5812 5811 5810 5810 5809 5808 5808 5808 5808 5807
5764 5769 5770 5774 5777 5781 5784 5787 5789 5793 5795 5798 5800 5802 5803 5804 5805 5805 5806 5806 5807 5807 5807 5807 5807 5807 5808 5807 5807 5807 5807 5807 5806 5806 5806 5805 5805 5804 5803 5803 5803 5802 5801 5801
5754 5757 5761 5765 5769 5772 5776 5780 5783 5785 5788 5791 5793 5794 5795 5797 5797 5798 5799 5799 5799 5800 5800 5800 5800 5800 5800 5800 5800 5800 5800 5800 5799 5799 5799 5798 5798 5798 5797 5797 5796 5795 5794 5794
5745 5749 5751 5757 5761 5765 5770 5773 5775 5778 5781 5783 5785 5786 5787 5788 5789 5790 5791 5792 5792 5792 5793 5793 5793 5793 5793 5793 5793 5792 5792 5792 5792 5792 5791 5791 5791 5791 5790 5790 5789 5788 5787 5786
5735 5739 5744 5749 5753 5757 5761 5765 5768 5770 5773 5775 5776 5778 5779 5780 5781 5782 5783 5784 5784 5785 5785 5785 5786 5786 5786 5785 5785 5785 5785 5785 5785 5784 5784 5784 5784 5783 5782 5782 5781 5781 5780 5780
5727 5732 5737 5742 5746 5749 5754 5757 5759 5762 5764 5766 5768 5769 5771 5772 5773 5774 5775 5776 5776 5777 5777 5778 5778 5778 5778 5778 5778 5778 5778 5778 5778 5777 5777 5777 5777 5776 5775 5775 5774 5773 5773 5772
5720 5725 5730 5734 5738 5742 5745 5748 5751 5753 5755 5757 5759 5761 5762 5764 5765 5766 5767 5768 5769 5769 5770 5770 5771 5771 5771 5771 5771 5771 5771 5771 5771 5771 5771 5770 5770 5769 5769 5768 5767 5766 5765 5764
5715 5719 5723 5727 5731 5734 5737 5740 5742 5745 5747 5749 5751 5752 5754 5755 5757 5758 5759 5760 5761 5762 5762 5763 5763 5764 5764 5764 5765 5764 5764 5764 5764 5764 5764 5763 5763 5763 5762 5761 5760 5759 5758 5757
5709 5712 5716 5719 5723 5726 5729 5731 5734 5736 5738 5740 5742 5744 5745 5747 5749 5750 5751 5753 5754 5755 5755 5756 5756 5757 5757 5758 5758 5758 5758 5758 5757 5757 5757 5757 5756 5756 5755 5754 5753 5752 5751 5750
5702 5705 5708 5712 5715 5718 5720 5723 5725 5728 5730 5732 5734 5735 5737 5739 5741 5742 5744 5745 5746 5747 5748 5749 5750 5750 5751 5751 5752 5752 5752 5751 5751 5751 5751 5750 5750 5749 5749 5748 5746 5745 5744 5742
5695 5698 5701 5704 5707 5710 5712 5715 5717 5720 5722 5724 5726 5727 5729 5731 5733 5735 5736 5738 5739 5740 5741 5742 5743 5744 5744 5745 5745 5746 5746 5745 5745 5744 5744 5744 5743 5743 5742 5740 5739 5738 5736 5735
5688 5691 5694 5697 5700 5702 5705 5708 5710 5712 5715 5717 5719 5720 5721 5724 5726 5728 5730 5731 5733 5734 5735 5736 5737 5738 5738 5739 5739 5739 5740 5739 5739 5739 5738 5738 5737 5736 5735 5734 5732 5731 5729 5728
5683 5686 5688 5691 5693 5696 5699 5701 5703 5706 5708 5710 5712 5714 5716 5718 5720 5722 5723 5725 5727 5728 5729 5730 5731 5732 5732 5733 5733 5734 5734 5734 5734 5733 5733 5732 5731 5730 5729 5728 5726 5724 5723 5721
5678 5680 5683 5685 5687 5690 5693 5695 5698 5700 5702 5704 5706 5709 5711 5713 5715 5716 5718 5720 5721 5722 5723 5724 5725 5726 5727 5728 5728 5729 5729 5729 5728 5728 5727 5726 5725 5724 5723 5721 5719 5718 5716 5714
5672 5675 5677 5680 5682 5685 5688 5690 5693 5695 5697 5699 5702 5704 5706 5708 5710 5712 5713 5715 5716 5717 5718 5719 5720 5721 5722 5723 5723 5723 5723 5723 5723 5722 5721 5720 5719 5718 5717 5715 5713 5711 5709 5707
5668 5670 5673 5676 5678 5681 5683 5686 5689 5691 5693 5696 5698 5701 5702 5704 5706 5708 5709 5711 5712 5713 5714 5715 5716 5717 5718 5718 5719 5719 5718 5718 5717 5716 5715 5714 5713 5712 5710 5709 5707 5705 5703 5701
5665 5667 5670 5673 5675 5678 5680 5682 5685 5688 5690 5693 5695 5697 5699 5701 5703 5705 5706 5708 5709 5710 5711 5712 5712 5713 5714 5714 5714 5713 5713 5712 5711 5710 5709 5708 5707 5706 5704 5703 5701 5699 5697 5695
5663 5666 5669 5671 5674 5676 5678 5681 5683 5686 5688 5691 5693 5695 5697 5699 5701 5702 5704 5705 5706 5707 5707 5708 5708 5708 5709 5709 5708 5708 5707 5706 5706 5705 5704 5703 5701 5700 5698 5697 5695 5693 5691 5689
5663 5666 5668 5670 5673 5675 5678 5680 5683 5685 5687 5689 5691 5693 5695 5697 5698 5700 5701 5702 5703 5703 5703 5704 5704 5704 5704 5704 5703 5702 5702 5701 5700 5699 5698 5697 5695 5693 5692 5690 5688 5686 5684 5682
5664 5666 5668 5671 5673 5675 5678 5680 5682 5684 5686 5688 5690 5692 5694 5695 5696 5697 5698 5699 5699 5699 5699 5700 5700 5699 5699 5698 5698 5697 5696 5695 5694 5693 5691 5690 5688 5687 5685 5683 5682 5680 5678 5676